owner,sensor,date,latitude,longitude,vertical_datum,mass_concentration_of_oxygen_in_sea_water,qcFlag 
LUMCON,ioos:station:LUMCON:wisl1:1,2019-01-01T00:00:00Z,29.1144,-90.1840,2.295,9.28,1111122 
LUMCON,ioos:station:LUMCON:wisl1:1,2019-01-01T00:15:00Z,29.1144,-90.1840,2.294,9.36,1111122 
LUMCON,ioos:station:LUMCON:wisl1:1,2019-01-01T00:30:00Z,29.1144,-90.1840,2.287,9.32,1111122 
LUMCON,ioos:station:LUMCON:wisl1:1,2019-01-01T00:45:00Z,29.1144,-90.1840,2.285,9.28,1111122 
LUMCON,ioos:station:LUMCON:wisl1:1,2019-01-01T01:00:00Z,29.1144,-90.1840,2.279,9.04,1111122 
LUMCON,ioos:station:LUMCON:wisl1:1,2019-01-01T01:15:00Z,29.1144,-90.1840,2.286,8.4,1111122 
LUMCON,ioos:station:LUMCON:wisl1:1,2019-01-01T01:30:00Z,29.1144,-90.1840,2.284,8.9,1111122 
LUMCON,ioos:station:LUMCON:wisl1:1,2019-01-01T01:45:00Z,29.1144,-90.1840,2.282,8.57,1111122 
LUMCON,ioos:station:LUMCON:wisl1:1,2019-01-01T02:00:00Z,29.1144,-90.1840,2.275,8.86,1111122 
LUMCON,ioos:station:LUMCON:wisl1:1,2019-01-01T02:15:00Z,29.1144,-90.1840,2.269,8.83,1111122 
LUMCON,ioos:station:LUMCON:wisl1:1,2019-01-01T02:30:00Z,29.1144,-90.1840,2.265,8.68,1111122 
LUMCON,ioos:station:LUMCON:wisl1:1,2019-01-01T02:45:00Z,29.1144,-90.1840,2.267,8.69,1111122 
LUMCON,ioos:station:LUMCON:wisl1:1,2019-01-01T03:00:00Z,29.1144,-90.1840,2.259,8.63,1111122 
LUMCON,ioos:station:LUMCON:wisl1:1,2019-01-01T03:15:00Z,29.1144,-90.1840,2.247,8.59,1111122 
LUMCON,ioos:station:LUMCON:wisl1:1,2019-01-01T03:30:00Z,29.1144,-90.1840,2.235,8.56,1111122 
LUMCON,ioos:station:LUMCON:wisl1:1,2019-01-01T03:45:00Z,29.1144,-90.1840,2.23,8.51,1111122 
LUMCON,ioos:station:LUMCON:wisl1:1,2019-01-01T04:00:00Z,29.1144,-90.1840,2.214,8.46,1111122 
LUMCON,ioos:station:LUMCON:wisl1:1,2019-01-01T04:15:00Z,29.1144,-90.1840,2.192,8.44,1111122 
LUMCON,ioos:station:LUMCON:wisl1:1,2019-01-01T04:30:00Z,29.1144,-90.1840,2.186,8.35,1111122 
LUMCON,ioos:station:LUMCON:wisl1:1,2019-01-01T04:45:00Z,29.1144,-90.1840,2.171,8.26,1111122 
LUMCON,ioos:station:LUMCON:wisl1:1,2019-01-01T05:00:00Z,29.1144,-90.1840,2.156,8.19,1111122 
LUMCON,ioos:station:LUMCON:wisl1:1,2019-01-01T05:15:00Z,29.1144,-90.1840,2.155,8.24,1111122 
LUMCON,ioos:station:LUMCON:wisl1:1,2019-01-01T05:30:00Z,29.1144,-90.1840,2.125,8.09,1111122 
LUMCON,ioos:station:LUMCON:wisl1:1,2019-01-01T05:45:00Z,29.1144,-90.1840,2.112,8.09,1111122 
LUMCON,ioos:station:LUMCON:wisl1:1,2019-01-01T06:00:00Z,29.1144,-90.1840,2.101,8.08,1111122 
LUMCON,ioos:station:LUMCON:wisl1:1,2019-01-01T06:15:00Z,29.1144,-90.1840,2.083,8.03,1111122 
LUMCON,ioos:station:LUMCON:wisl1:1,2019-01-01T06:30:00Z,29.1144,-90.1840,2.073,8.01,1111122 
LUMCON,ioos:station:LUMCON:wisl1:1,2019-01-01T06:45:00Z,29.1144,-90.1840,2.062,8.0,1111122 
LUMCON,ioos:station:LUMCON:wisl1:1,2019-01-01T07:00:00Z,29.1144,-90.1840,2.044,7.91,1111122 
LUMCON,ioos:station:LUMCON:wisl1:1,2019-01-01T07:15:00Z,29.1144,-90.1840,2.029,7.88,1111122 
LUMCON,ioos:station:LUMCON:wisl1:1,2019-01-01T07:30:00Z,29.1144,-90.1840,2.008,7.79,1111122 
LUMCON,ioos:station:LUMCON:wisl1:1,2019-01-01T07:45:00Z,29.1144,-90.1840,1.996,7.77,1111122 
LUMCON,ioos:station:LUMCON:wisl1:1,2019-01-01T08:00:00Z,29.1144,-90.1840,2.0,7.76,1111122 
LUMCON,ioos:station:LUMCON:wisl1:1,2019-01-01T08:15:00Z,29.1144,-90.1840,1.982,7.68,1111122 
LUMCON,ioos:station:LUMCON:wisl1:1,2019-01-01T08:30:00Z,29.1144,-90.1840,1.965,7.66,1111122 
LUMCON,ioos:station:LUMCON:wisl1:1,2019-01-01T08:45:00Z,29.1144,-90.1840,1.963,7.65,1111122 
LUMCON,ioos:station:LUMCON:wisl1:1,2019-01-01T09:00:00Z,29.1144,-90.1840,1.948,7.57,1111122 
LUMCON,ioos:station:LUMCON:wisl1:1,2019-01-01T09:15:00Z,29.1144,-90.1840,1.936,7.54,1111122 
LUMCON,ioos:station:LUMCON:wisl1:1,2019-01-01T09:30:00Z,29.1144,-90.1840,1.926,7.43,1111122 
LUMCON,ioos:station:LUMCON:wisl1:1,2019-01-01T09:45:00Z,29.1144,-90.1840,1.932,7.42,1111122 
LUMCON,ioos:station:LUMCON:wisl1:1,2019-01-01T10:00:00Z,29.1144,-90.1840,1.912,7.34,1111122 
LUMCON,ioos:station:LUMCON:wisl1:1,2019-01-01T10:15:00Z,29.1144,-90.1840,1.904,7.36,1111122 
LUMCON,ioos:station:LUMCON:wisl1:1,2019-01-01T10:30:00Z,29.1144,-90.1840,1.893,7.27,1111122 
LUMCON,ioos:station:LUMCON:wisl1:1,2019-01-01T10:45:00Z,29.1144,-90.1840,1.906,7.28,1111122 
LUMCON,ioos:station:LUMCON:wisl1:1,2019-01-01T11:00:00Z,29.1144,-90.1840,1.888,7.21,1111122 
LUMCON,ioos:station:LUMCON:wisl1:1,2019-01-01T11:15:00Z,29.1144,-90.1840,1.893,7.17,1111122 
LUMCON,ioos:station:LUMCON:wisl1:1,2019-01-01T11:30:00Z,29.1144,-90.1840,1.887,7.15,1111122 
LUMCON,ioos:station:LUMCON:wisl1:1,2019-01-01T11:45:00Z,29.1144,-90.1840,1.895,7.07,1111122 
LUMCON,ioos:station:LUMCON:wisl1:1,2019-01-01T12:00:00Z,29.1144,-90.1840,1.897,7.02,1111122 
LUMCON,ioos:station:LUMCON:wisl1:1,2019-01-01T12:15:00Z,29.1144,-90.1840,1.894,7.0,1111122 
LUMCON,ioos:station:LUMCON:wisl1:1,2019-01-01T12:30:00Z,29.1144,-90.1840,1.903,6.85,1111122 
LUMCON,ioos:station:LUMCON:wisl1:1,2019-01-01T12:45:00Z,29.1144,-90.1840,1.898,6.95,1111122 
LUMCON,ioos:station:LUMCON:wisl1:1,2019-01-01T13:00:00Z,29.1144,-90.1840,1.911,6.89,1111122 
LUMCON,ioos:station:LUMCON:wisl1:1,2019-01-01T13:15:00Z,29.1144,-90.1840,1.924,6.88,1111122 
LUMCON,ioos:station:LUMCON:wisl1:1,2019-01-01T13:30:00Z,29.1144,-90.1840,1.934,6.8,1111122 
LUMCON,ioos:station:LUMCON:wisl1:1,2019-01-01T13:45:00Z,29.1144,-90.1840,1.944,6.72,1111122 
LUMCON,ioos:station:LUMCON:wisl1:1,2019-01-01T14:00:00Z,29.1144,-90.1840,1.952,6.74,1111122 
LUMCON,ioos:station:LUMCON:wisl1:1,2019-01-01T14:15:00Z,29.1144,-90.1840,1.947,6.55,1111122 
LUMCON,ioos:station:LUMCON:wisl1:1,2019-01-01T14:30:00Z,29.1144,-90.1840,1.961,6.55,1111122 
LUMCON,ioos:station:LUMCON:wisl1:1,2019-01-01T14:45:00Z,29.1144,-90.1840,1.965,6.0,1111122 
LUMCON,ioos:station:LUMCON:wisl1:1,2019-01-01T15:00:00Z,29.1144,-90.1840,1.968,6.59,1111122 
LUMCON,ioos:station:LUMCON:wisl1:1,2019-01-01T15:15:00Z,29.1144,-90.1840,1.985,6.75,1111122 
LUMCON,ioos:station:LUMCON:wisl1:1,2019-01-01T15:30:00Z,29.1144,-90.1840,1.996,6.91,1111122 
LUMCON,ioos:station:LUMCON:wisl1:1,2019-01-01T15:45:00Z,29.1144,-90.1840,1.992,7.08,1111122 
LUMCON,ioos:station:LUMCON:wisl1:1,2019-01-01T16:00:00Z,29.1144,-90.1840,2.001,6.69,1111122 
LUMCON,ioos:station:LUMCON:wisl1:1,2019-01-01T16:15:00Z,29.1144,-90.1840,2.011,6.47,1111122 
LUMCON,ioos:station:LUMCON:wisl1:1,2019-01-01T16:30:00Z,29.1144,-90.1840,2.011,6.68,1111122 
LUMCON,ioos:station:LUMCON:wisl1:1,2019-01-01T16:45:00Z,29.1144,-90.1840,2.025,6.62,1111122 
LUMCON,ioos:station:LUMCON:wisl1:1,2019-01-01T17:00:00Z,29.1144,-90.1840,2.038,6.7,1111122 
LUMCON,ioos:station:LUMCON:wisl1:1,2019-01-01T17:15:00Z,29.1144,-90.1840,2.045,6.59,1111122 
LUMCON,ioos:station:LUMCON:wisl1:1,2019-01-01T17:30:00Z,29.1144,-90.1840,2.047,6.93,1111122 
LUMCON,ioos:station:LUMCON:wisl1:1,2019-01-01T17:45:00Z,29.1144,-90.1840,2.048,6.9,1111122 
LUMCON,ioos:station:LUMCON:wisl1:1,2019-01-01T18:00:00Z,29.1144,-90.1840,2.057,7.07,1111122 
LUMCON,ioos:station:LUMCON:wisl1:1,2019-01-01T18:15:00Z,29.1144,-90.1840,2.063,7.05,1111122 
LUMCON,ioos:station:LUMCON:wisl1:1,2019-01-01T18:30:00Z,29.1144,-90.1840,2.075,7.22,1111122 
LUMCON,ioos:station:LUMCON:wisl1:1,2019-01-01T18:45:00Z,29.1144,-90.1840,2.079,7.4,1111122 
LUMCON,ioos:station:LUMCON:wisl1:1,2019-01-01T19:00:00Z,29.1144,-90.1840,2.092,7.27,1111122 
LUMCON,ioos:station:LUMCON:wisl1:1,2019-01-01T19:15:00Z,29.1144,-90.1840,2.101,7.21,1111122 
LUMCON,ioos:station:LUMCON:wisl1:1,2019-01-01T19:30:00Z,29.1144,-90.1840,2.102,7.13,1111122 
LUMCON,ioos:station:LUMCON:wisl1:1,2019-01-01T19:45:00Z,29.1144,-90.1840,2.117,7.41,1111122 
LUMCON,ioos:station:LUMCON:wisl1:1,2019-01-01T20:00:00Z,29.1144,-90.1840,2.131,7.58,1111122 
LUMCON,ioos:station:LUMCON:wisl1:1,2019-01-01T20:15:00Z,29.1144,-90.1840,2.135,7.72,1111122 
LUMCON,ioos:station:LUMCON:wisl1:1,2019-01-01T20:30:00Z,29.1144,-90.1840,2.155,7.83,1111122 
LUMCON,ioos:station:LUMCON:wisl1:1,2019-01-01T20:45:00Z,29.1144,-90.1840,2.168,7.73,1111122 
LUMCON,ioos:station:LUMCON:wisl1:1,2019-01-01T21:00:00Z,29.1144,-90.1840,2.163,7.67,1111122 
LUMCON,ioos:station:LUMCON:wisl1:1,2019-01-01T21:15:00Z,29.1144,-90.1840,2.182,7.81,1111122 
LUMCON,ioos:station:LUMCON:wisl1:1,2019-01-01T21:30:00Z,29.1144,-90.1840,2.186,7.8,1111122 
LUMCON,ioos:station:LUMCON:wisl1:1,2019-01-01T21:45:00Z,29.1144,-90.1840,2.185,7.58,1111122 
LUMCON,ioos:station:LUMCON:wisl1:1,2019-01-01T22:00:00Z,29.1144,-90.1840,2.195,7.73,1111122 
LUMCON,ioos:station:LUMCON:wisl1:1,2019-01-01T22:15:00Z,29.1144,-90.1840,2.211,7.87,1111122 
LUMCON,ioos:station:LUMCON:wisl1:1,2019-01-01T22:30:00Z,29.1144,-90.1840,2.201,7.88,1111122 
LUMCON,ioos:station:LUMCON:wisl1:1,2019-01-01T22:45:00Z,29.1144,-90.1840,2.209,8.04,1111122 
LUMCON,ioos:station:LUMCON:wisl1:1,2019-01-01T23:00:00Z,29.1144,-90.1840,2.219,8.01,1111122 
LUMCON,ioos:station:LUMCON:wisl1:1,2019-01-01T23:15:00Z,29.1144,-90.1840,2.219,8.03,1111122 
LUMCON,ioos:station:LUMCON:wisl1:1,2019-01-01T23:30:00Z,29.1144,-90.1840,2.23,8.05,1111122 
LUMCON,ioos:station:LUMCON:wisl1:1,2019-01-01T23:45:00Z,29.1144,-90.1840,2.226,8.08,1111122 
LUMCON,ioos:station:LUMCON:wisl1:1,2019-01-02T00:00:00Z,29.1144,-90.1840,2.227,8.0,1111122 
LUMCON,ioos:station:LUMCON:wisl1:1,2019-01-02T00:15:00Z,29.1144,-90.1840,2.236,7.97,1111122 
LUMCON,ioos:station:LUMCON:wisl1:1,2019-01-02T00:30:00Z,29.1144,-90.1840,2.244,8.0,1111122 
LUMCON,ioos:station:LUMCON:wisl1:1,2019-01-02T00:45:00Z,29.1144,-90.1840,2.243,8.12,1111122 
LUMCON,ioos:station:LUMCON:wisl1:1,2019-01-02T01:00:00Z,29.1144,-90.1840,2.249,8.1,1111122 
LUMCON,ioos:station:LUMCON:wisl1:1,2019-01-02T01:15:00Z,29.1144,-90.1840,2.243,8.07,1111122 
LUMCON,ioos:station:LUMCON:wisl1:1,2019-01-02T01:30:00Z,29.1144,-90.1840,2.249,8.12,1111122 
LUMCON,ioos:station:LUMCON:wisl1:1,2019-01-02T01:45:00Z,29.1144,-90.1840,2.25,7.7,1111122 
LUMCON,ioos:station:LUMCON:wisl1:1,2019-01-02T02:00:00Z,29.1144,-90.1840,2.257,7.72,1111122 
LUMCON,ioos:station:LUMCON:wisl1:1,2019-01-02T02:15:00Z,29.1144,-90.1840,2.239,8.04,1111122 
LUMCON,ioos:station:LUMCON:wisl1:1,2019-01-02T02:30:00Z,29.1144,-90.1840,2.253,7.96,1111122 
LUMCON,ioos:station:LUMCON:wisl1:1,2019-01-02T02:45:00Z,29.1144,-90.1840,2.234,8.02,1111122 
LUMCON,ioos:station:LUMCON:wisl1:1,2019-01-02T03:00:00Z,29.1144,-90.1840,2.225,8.0,1111122 
LUMCON,ioos:station:LUMCON:wisl1:1,2019-01-02T03:15:00Z,29.1144,-90.1840,2.212,8.05,1111122 
LUMCON,ioos:station:LUMCON:wisl1:1,2019-01-02T03:30:00Z,29.1144,-90.1840,2.201,8.07,1111122 
LUMCON,ioos:station:LUMCON:wisl1:1,2019-01-02T03:45:00Z,29.1144,-90.1840,2.193,8.1,1111122 
LUMCON,ioos:station:LUMCON:wisl1:1,2019-01-02T04:00:00Z,29.1144,-90.1840,2.181,8.16,1111122 
LUMCON,ioos:station:LUMCON:wisl1:1,2019-01-02T04:15:00Z,29.1144,-90.1840,2.173,8.0,1111122 
LUMCON,ioos:station:LUMCON:wisl1:1,2019-01-02T04:30:00Z,29.1144,-90.1840,2.159,7.94,1111122 
LUMCON,ioos:station:LUMCON:wisl1:1,2019-01-02T04:45:00Z,29.1144,-90.1840,2.146,7.88,1111122 
LUMCON,ioos:station:LUMCON:wisl1:1,2019-01-02T05:00:00Z,29.1144,-90.1840,2.128,7.68,1111122 
LUMCON,ioos:station:LUMCON:wisl1:1,2019-01-02T05:15:00Z,29.1144,-90.1840,2.112,7.73,1111122 
LUMCON,ioos:station:LUMCON:wisl1:1,2019-01-02T05:30:00Z,29.1144,-90.1840,2.101,7.68,1111122 
LUMCON,ioos:station:LUMCON:wisl1:1,2019-01-02T05:45:00Z,29.1144,-90.1840,2.086,7.65,1111122 
LUMCON,ioos:station:LUMCON:wisl1:1,2019-01-02T06:00:00Z,29.1144,-90.1840,2.064,7.65,1111122 
LUMCON,ioos:station:LUMCON:wisl1:1,2019-01-02T06:15:00Z,29.1144,-90.1840,2.047,7.68,1111122 
LUMCON,ioos:station:LUMCON:wisl1:1,2019-01-02T06:30:00Z,29.1144,-90.1840,2.028,7.65,1111122 
LUMCON,ioos:station:LUMCON:wisl1:1,2019-01-02T06:45:00Z,29.1144,-90.1840,2.01,7.58,1111122 
LUMCON,ioos:station:LUMCON:wisl1:1,2019-01-02T07:00:00Z,29.1144,-90.1840,1.995,7.57,1111122 
LUMCON,ioos:station:LUMCON:wisl1:1,2019-01-02T07:15:00Z,29.1144,-90.1840,1.978,7.55,1111122 
LUMCON,ioos:station:LUMCON:wisl1:1,2019-01-02T07:30:00Z,29.1144,-90.1840,1.969,7.52,1111122 
LUMCON,ioos:station:LUMCON:wisl1:1,2019-01-02T07:45:00Z,29.1144,-90.1840,1.938,7.47,1111122 
LUMCON,ioos:station:LUMCON:wisl1:1,2019-01-02T08:00:00Z,29.1144,-90.1840,1.923,7.45,1111122 
LUMCON,ioos:station:LUMCON:wisl1:1,2019-01-02T08:15:00Z,29.1144,-90.1840,1.919,7.39,1111122 
LUMCON,ioos:station:LUMCON:wisl1:1,2019-01-02T08:30:00Z,29.1144,-90.1840,1.904,7.33,1111122 
LUMCON,ioos:station:LUMCON:wisl1:1,2019-01-02T08:45:00Z,29.1144,-90.1840,1.89,7.28,1111122 
LUMCON,ioos:station:LUMCON:wisl1:1,2019-01-02T09:00:00Z,29.1144,-90.1840,1.884,7.17,1111122 
LUMCON,ioos:station:LUMCON:wisl1:1,2019-01-02T09:15:00Z,29.1144,-90.1840,1.883,7.22,1111122 
LUMCON,ioos:station:LUMCON:wisl1:1,2019-01-02T09:30:00Z,29.1144,-90.1840,1.874,7.24,1111122 
LUMCON,ioos:station:LUMCON:wisl1:1,2019-01-02T09:45:00Z,29.1144,-90.1840,1.861,7.13,1111122 
LUMCON,ioos:station:LUMCON:wisl1:1,2019-01-02T10:00:00Z,29.1144,-90.1840,1.84,7.13,1111122 
LUMCON,ioos:station:LUMCON:wisl1:1,2019-01-02T10:15:00Z,29.1144,-90.1840,1.845,7.13,1111122 
LUMCON,ioos:station:LUMCON:wisl1:1,2019-01-02T10:30:00Z,29.1144,-90.1840,1.838,7.11,1111122 
LUMCON,ioos:station:LUMCON:wisl1:1,2019-01-02T10:45:00Z,29.1144,-90.1840,1.839,7.09,1111122 
LUMCON,ioos:station:LUMCON:wisl1:1,2019-01-02T11:00:00Z,29.1144,-90.1840,1.824,7.11,1111122 
LUMCON,ioos:station:LUMCON:wisl1:1,2019-01-02T11:15:00Z,29.1144,-90.1840,1.815,7.08,1111122 
LUMCON,ioos:station:LUMCON:wisl1:1,2019-01-02T11:30:00Z,29.1144,-90.1840,1.808,7.11,1111122 
LUMCON,ioos:station:LUMCON:wisl1:1,2019-01-02T11:45:00Z,29.1144,-90.1840,1.818,7.07,1111122 
LUMCON,ioos:station:LUMCON:wisl1:1,2019-01-02T12:00:00Z,29.1144,-90.1840,1.817,7.08,1111122 
LUMCON,ioos:station:LUMCON:wisl1:1,2019-01-02T12:15:00Z,29.1144,-90.1840,1.82,7.06,1111122 
LUMCON,ioos:station:LUMCON:wisl1:1,2019-01-02T12:30:00Z,29.1144,-90.1840,1.843,7.01,1111122 
LUMCON,ioos:station:LUMCON:wisl1:1,2019-01-02T12:45:00Z,29.1144,-90.1840,1.831,7.07,1111122 
LUMCON,ioos:station:LUMCON:wisl1:1,2019-01-02T13:00:00Z,29.1144,-90.1840,1.839,7.06,1111122 
LUMCON,ioos:station:LUMCON:wisl1:1,2019-01-02T13:15:00Z,29.1144,-90.1840,1.845,7.07,1111122 
LUMCON,ioos:station:LUMCON:wisl1:1,2019-01-02T13:30:00Z,29.1144,-90.1840,1.85,7.04,1111122 
LUMCON,ioos:station:LUMCON:wisl1:1,2019-01-02T13:45:00Z,29.1144,-90.1840,1.863,7.06,1111122 
LUMCON,ioos:station:LUMCON:wisl1:1,2019-01-02T14:00:00Z,29.1144,-90.1840,1.887,7.08,1111122 
LUMCON,ioos:station:LUMCON:wisl1:1,2019-01-02T14:15:00Z,29.1144,-90.1840,1.885,6.99,1111122 
LUMCON,ioos:station:LUMCON:wisl1:1,2019-01-02T14:30:00Z,29.1144,-90.1840,1.904,6.65,1111122 
LUMCON,ioos:station:LUMCON:wisl1:1,2019-01-02T14:45:00Z,29.1144,-90.1840,1.912,6.83,1111122 
LUMCON,ioos:station:LUMCON:wisl1:1,2019-01-02T15:00:00Z,29.1144,-90.1840,1.932,7.14,1111122 
LUMCON,ioos:station:LUMCON:wisl1:1,2019-01-02T15:15:00Z,29.1144,-90.1840,1.943,7.24,1111122 
LUMCON,ioos:station:LUMCON:wisl1:1,2019-01-02T15:30:00Z,29.1144,-90.1840,1.943,7.1,1111122 
LUMCON,ioos:station:LUMCON:wisl1:1,2019-01-02T15:45:00Z,29.1144,-90.1840,1.949,7.18,1111122 
LUMCON,ioos:station:LUMCON:wisl1:1,2019-01-02T16:00:00Z,29.1144,-90.1840,1.94,7.21,1111122 
LUMCON,ioos:station:LUMCON:wisl1:1,2019-01-02T16:15:00Z,29.1144,-90.1840,1.948,7.07,1111122 
LUMCON,ioos:station:LUMCON:wisl1:1,2019-01-02T16:30:00Z,29.1144,-90.1840,1.955,6.96,1111122 
LUMCON,ioos:station:LUMCON:wisl1:1,2019-01-02T16:45:00Z,29.1144,-90.1840,1.976,7.17,1111122 
LUMCON,ioos:station:LUMCON:wisl1:1,2019-01-02T17:00:00Z,29.1144,-90.1840,1.986,7.13,1111122 
LUMCON,ioos:station:LUMCON:wisl1:1,2019-01-02T17:15:00Z,29.1144,-90.1840,1.971,7.03,1111122 
LUMCON,ioos:station:LUMCON:wisl1:1,2019-01-02T17:30:00Z,29.1144,-90.1840,1.987,7.07,1111122 
LUMCON,ioos:station:LUMCON:wisl1:1,2019-01-02T17:45:00Z,29.1144,-90.1840,2.011,6.96,1111122 
LUMCON,ioos:station:LUMCON:wisl1:1,2019-01-02T18:00:00Z,29.1144,-90.1840,2.009,7.23,1111122 
LUMCON,ioos:station:LUMCON:wisl1:1,2019-01-02T18:15:00Z,29.1144,-90.1840,2.03,7.35,1111122 
LUMCON,ioos:station:LUMCON:wisl1:1,2019-01-02T18:30:00Z,29.1144,-90.1840,2.031,7.44,1111122 
LUMCON,ioos:station:LUMCON:wisl1:1,2019-01-02T18:45:00Z,29.1144,-90.1840,2.047,7.54,1111122 
LUMCON,ioos:station:LUMCON:wisl1:1,2019-01-02T19:00:00Z,29.1144,-90.1840,2.07,7.6,1111122 
LUMCON,ioos:station:LUMCON:wisl1:1,2019-01-02T19:15:00Z,29.1144,-90.1840,2.075,7.76,1111122 
LUMCON,ioos:station:LUMCON:wisl1:1,2019-01-02T19:30:00Z,29.1144,-90.1840,2.094,7.88,1111122 
LUMCON,ioos:station:LUMCON:wisl1:1,2019-01-02T19:45:00Z,29.1144,-90.1840,2.103,8.12,1111122 
LUMCON,ioos:station:LUMCON:wisl1:1,2019-01-02T20:00:00Z,29.1144,-90.1840,2.116,8.45,1111122 
LUMCON,ioos:station:LUMCON:wisl1:1,2019-01-02T20:15:00Z,29.1144,-90.1840,2.131,8.51,1111122 
LUMCON,ioos:station:LUMCON:wisl1:1,2019-01-02T20:30:00Z,29.1144,-90.1840,2.148,8.62,1111122 
LUMCON,ioos:station:LUMCON:wisl1:1,2019-01-02T20:45:00Z,29.1144,-90.1840,2.149,8.72,1111122 
LUMCON,ioos:station:LUMCON:wisl1:1,2019-01-02T21:00:00Z,29.1144,-90.1840,2.158,8.81,1111122 
LUMCON,ioos:station:LUMCON:wisl1:1,2019-01-02T21:15:00Z,29.1144,-90.1840,2.18,8.84,1111122 
LUMCON,ioos:station:LUMCON:wisl1:1,2019-01-02T21:30:00Z,29.1144,-90.1840,2.191,8.81,1111122 
LUMCON,ioos:station:LUMCON:wisl1:1,2019-01-02T21:45:00Z,29.1144,-90.1840,2.198,8.63,1111122 
LUMCON,ioos:station:LUMCON:wisl1:1,2019-01-02T22:00:00Z,29.1144,-90.1840,2.203,8.78,1111122 
LUMCON,ioos:station:LUMCON:wisl1:1,2019-01-02T22:15:00Z,29.1144,-90.1840,2.215,8.91,1111122 
LUMCON,ioos:station:LUMCON:wisl1:1,2019-01-02T22:30:00Z,29.1144,-90.1840,2.218,8.86,1111122 
LUMCON,ioos:station:LUMCON:wisl1:1,2019-01-02T22:45:00Z,29.1144,-90.1840,2.236,8.88,1111122 
LUMCON,ioos:station:LUMCON:wisl1:1,2019-01-02T23:00:00Z,29.1144,-90.1840,2.238,8.69,1111122 
LUMCON,ioos:station:LUMCON:wisl1:1,2019-01-02T23:15:00Z,29.1144,-90.1840,2.248,8.69,1111122 
LUMCON,ioos:station:LUMCON:wisl1:1,2019-01-02T23:30:00Z,29.1144,-90.1840,2.25,8.87,1111122 
LUMCON,ioos:station:LUMCON:wisl1:1,2019-01-02T23:45:00Z,29.1144,-90.1840,2.262,8.77,1111122 
LUMCON,ioos:station:LUMCON:wisl1:1,2019-01-03T00:00:00Z,29.1144,-90.1840,2.259,8.86,1111122 
LUMCON,ioos:station:LUMCON:wisl1:1,2019-01-03T00:15:00Z,29.1144,-90.1840,2.266,8.8,1111122 
LUMCON,ioos:station:LUMCON:wisl1:1,2019-01-03T00:30:00Z,29.1144,-90.1840,2.269,8.8,1111122 
LUMCON,ioos:station:LUMCON:wisl1:1,2019-01-03T00:45:00Z,29.1144,-90.1840,2.274,8.83,1111122 
LUMCON,ioos:station:LUMCON:wisl1:1,2019-01-03T01:00:00Z,29.1144,-90.1840,2.277,9.15,1111122 
LUMCON,ioos:station:LUMCON:wisl1:1,2019-01-03T01:15:00Z,29.1144,-90.1840,2.292,8.82,1111122 
LUMCON,ioos:station:LUMCON:wisl1:1,2019-01-03T01:30:00Z,29.1144,-90.1840,2.286,8.64,1111122 
LUMCON,ioos:station:LUMCON:wisl1:1,2019-01-03T01:45:00Z,29.1144,-90.1840,2.293,9.08,1111122 
LUMCON,ioos:station:LUMCON:wisl1:1,2019-01-03T02:00:00Z,29.1144,-90.1840,2.308,8.71,1111122 
LUMCON,ioos:station:LUMCON:wisl1:1,2019-01-03T02:15:00Z,29.1144,-90.1840,2.307,9.03,1111122 
LUMCON,ioos:station:LUMCON:wisl1:1,2019-01-03T02:30:00Z,29.1144,-90.1840,2.309,8.93,1111122 
LUMCON,ioos:station:LUMCON:wisl1:1,2019-01-03T02:45:00Z,29.1144,-90.1840,2.304,9.05,1111122 
LUMCON,ioos:station:LUMCON:wisl1:1,2019-01-03T03:00:00Z,29.1144,-90.1840,2.314,8.99,1111122 
LUMCON,ioos:station:LUMCON:wisl1:1,2019-01-03T03:15:00Z,29.1144,-90.1840,2.283,8.72,1111122 
LUMCON,ioos:station:LUMCON:wisl1:1,2019-01-03T03:30:00Z,29.1144,-90.1840,2.295,8.99,1111122 
LUMCON,ioos:station:LUMCON:wisl1:1,2019-01-03T03:45:00Z,29.1144,-90.1840,2.273,8.47,1111122 
LUMCON,ioos:station:LUMCON:wisl1:1,2019-01-03T04:00:00Z,29.1144,-90.1840,2.263,8.56,1111122 
LUMCON,ioos:station:LUMCON:wisl1:1,2019-01-03T04:15:00Z,29.1144,-90.1840,2.225,9.04,1111122 
LUMCON,ioos:station:LUMCON:wisl1:1,2019-01-03T04:30:00Z,29.1144,-90.1840,2.224,8.97,1111122 
LUMCON,ioos:station:LUMCON:wisl1:1,2019-01-03T04:45:00Z,29.1144,-90.1840,2.208,8.9,1111122 
LUMCON,ioos:station:LUMCON:wisl1:1,2019-01-03T05:00:00Z,29.1144,-90.1840,2.206,8.82,1111122 
LUMCON,ioos:station:LUMCON:wisl1:1,2019-01-03T05:15:00Z,29.1144,-90.1840,2.19,8.79,1111122 
LUMCON,ioos:station:LUMCON:wisl1:1,2019-01-03T05:30:00Z,29.1144,-90.1840,2.175,8.74,1111122 
LUMCON,ioos:station:LUMCON:wisl1:1,2019-01-03T05:45:00Z,29.1144,-90.1840,2.16,8.69,1111122 
LUMCON,ioos:station:LUMCON:wisl1:1,2019-01-03T06:00:00Z,29.1144,-90.1840,2.138,8.56,1111122 
LUMCON,ioos:station:LUMCON:wisl1:1,2019-01-03T06:15:00Z,29.1144,-90.1840,2.128,8.45,1111122 
LUMCON,ioos:station:LUMCON:wisl1:1,2019-01-03T06:30:00Z,29.1144,-90.1840,2.106,8.35,1111122 
LUMCON,ioos:station:LUMCON:wisl1:1,2019-01-03T06:45:00Z,29.1144,-90.1840,2.094,8.22,1111122 
LUMCON,ioos:station:LUMCON:wisl1:1,2019-01-03T07:00:00Z,29.1144,-90.1840,2.08,8.12,1111122 
LUMCON,ioos:station:LUMCON:wisl1:1,2019-01-03T07:15:00Z,29.1144,-90.1840,2.065,8.12,1111122 
LUMCON,ioos:station:LUMCON:wisl1:1,2019-01-03T07:30:00Z,29.1144,-90.1840,2.048,8.03,1111122 
LUMCON,ioos:station:LUMCON:wisl1:1,2019-01-03T07:45:00Z,29.1144,-90.1840,2.035,7.95,1111122 
LUMCON,ioos:station:LUMCON:wisl1:1,2019-01-03T08:00:00Z,29.1144,-90.1840,2.007,7.84,1111122 
LUMCON,ioos:station:LUMCON:wisl1:1,2019-01-03T08:15:00Z,29.1144,-90.1840,1.992,7.81,1111122 
LUMCON,ioos:station:LUMCON:wisl1:1,2019-01-03T08:30:00Z,29.1144,-90.1840,1.971,7.76,1111122 
LUMCON,ioos:station:LUMCON:wisl1:1,2019-01-03T08:45:00Z,29.1144,-90.1840,1.946,7.68,1111122 
LUMCON,ioos:station:LUMCON:wisl1:1,2019-01-03T09:00:00Z,29.1144,-90.1840,1.922,7.64,1111122 
LUMCON,ioos:station:LUMCON:wisl1:1,2019-01-03T09:15:00Z,29.1144,-90.1840,1.893,7.58,1111122 
LUMCON,ioos:station:LUMCON:wisl1:1,2019-01-03T09:30:00Z,29.1144,-90.1840,1.89,7.52,1111122 
LUMCON,ioos:station:LUMCON:wisl1:1,2019-01-03T09:45:00Z,29.1144,-90.1840,1.887,7.49,1111122 
LUMCON,ioos:station:LUMCON:wisl1:1,2019-01-03T10:00:00Z,29.1144,-90.1840,1.868,7.4,1111122 
LUMCON,ioos:station:LUMCON:wisl1:1,2019-01-03T10:15:00Z,29.1144,-90.1840,1.859,7.45,1111122 
LUMCON,ioos:station:LUMCON:wisl1:1,2019-01-03T10:30:00Z,29.1144,-90.1840,1.862,7.42,1111122 
LUMCON,ioos:station:LUMCON:wisl1:1,2019-01-03T10:45:00Z,29.1144,-90.1840,1.844,7.29,1111122 
LUMCON,ioos:station:LUMCON:wisl1:1,2019-01-03T11:00:00Z,29.1144,-90.1840,1.84,7.33,1111122 
LUMCON,ioos:station:LUMCON:wisl1:1,2019-01-03T11:15:00Z,29.1144,-90.1840,1.828,7.37,1111122 
LUMCON,ioos:station:LUMCON:wisl1:1,2019-01-03T11:30:00Z,29.1144,-90.1840,1.815,7.34,1111122 
LUMCON,ioos:station:LUMCON:wisl1:1,2019-01-03T11:45:00Z,29.1144,-90.1840,1.8,7.37,1111122 
LUMCON,ioos:station:LUMCON:wisl1:1,2019-01-03T12:00:00Z,29.1144,-90.1840,1.782,7.27,1111122 
LUMCON,ioos:station:LUMCON:wisl1:1,2019-01-03T12:15:00Z,29.1144,-90.1840,1.762,7.29,1111122 
LUMCON,ioos:station:LUMCON:wisl1:1,2019-01-03T12:30:00Z,29.1144,-90.1840,1.757,7.29,1111122 
LUMCON,ioos:station:LUMCON:wisl1:1,2019-01-03T12:45:00Z,29.1144,-90.1840,1.752,7.31,1111122 
LUMCON,ioos:station:LUMCON:wisl1:1,2019-01-03T13:00:00Z,29.1144,-90.1840,1.741,7.27,1111122 
LUMCON,ioos:station:LUMCON:wisl1:1,2019-01-03T13:15:00Z,29.1144,-90.1840,1.736,7.31,1111122 
LUMCON,ioos:station:LUMCON:wisl1:1,2019-01-03T13:30:00Z,29.1144,-90.1840,1.735,7.39,1111122 
LUMCON,ioos:station:LUMCON:wisl1:1,2019-01-03T13:45:00Z,29.1144,-90.1840,1.753,7.41,1111122 
LUMCON,ioos:station:LUMCON:wisl1:1,2019-01-03T14:00:00Z,29.1144,-90.1840,1.746,7.28,1111122 
LUMCON,ioos:station:LUMCON:wisl1:1,2019-01-03T14:15:00Z,29.1144,-90.1840,1.748,7.28,1111122 
LUMCON,ioos:station:LUMCON:wisl1:1,2019-01-03T14:30:00Z,29.1144,-90.1840,1.778,7.33,1111122 
LUMCON,ioos:station:LUMCON:wisl1:1,2019-01-03T14:45:00Z,29.1144,-90.1840,1.805,7.34,1111122 
LUMCON,ioos:station:LUMCON:wisl1:1,2019-01-03T15:00:00Z,29.1144,-90.1840,1.811,7.36,1111122 
LUMCON,ioos:station:LUMCON:wisl1:1,2019-01-03T15:15:00Z,29.1144,-90.1840,1.83,7.34,1111122 
LUMCON,ioos:station:LUMCON:wisl1:1,2019-01-03T15:30:00Z,29.1144,-90.1840,1.825,7.29,1111122 
LUMCON,ioos:station:LUMCON:wisl1:1,2019-01-03T15:45:00Z,29.1144,-90.1840,1.832,7.31,1111122 
LUMCON,ioos:station:LUMCON:wisl1:1,2019-01-03T16:00:00Z,29.1144,-90.1840,1.845,7.3,1111122 